QPF
0.00 0.00 0.00 0.01 0.01 0.01 0.01 0.01 0.01 0.01 0.01 0.01 0.01 0.01 0.01 0.01 0.01 0.01 0.01 0.01 0.01 0.01 0.01 0.01 0.01 0.01 0.01 0.01 0.01 0.01 0.01 0.01 0.01 0.01 0.00 0.00 0.00 0.01 0.02 0.03 0.02 0.02 0.06
0.00 0.00 0.00 0.00 0.00 0.00 0.01 0.01 0.01 0.01 0.01 0.01 0.01 0.01 0.01 0.01 0.01 0.01 0.01 0.01 0.01 0.01 0.01 0.01 0.01 0.01 0.01 0.01 0.01 0.01 0.01 0.01 0.01 0.00 0.00 0.00 0.00 0.01 0.03 0.03 0.03 0.03 0.05
0.00 0.00 0.00 0.00 0.00 0.00 0.00 0.00 0.00 0.01 0.01 0.01 0.01 0.01 0.01 0.01 0.01 0.01 0.01 0.01 0.01 0.01 0.01 0.01 0.01 0.01 0.01 0.01 0.01 0.01 0.01 0.01 0.00 0.00 0.00 0.00 0.01 0.02 0.03 0.04 0.04 0.04 0.04
0.00 0.00 0.00 0.00 0.00 0.00 0.00 0.00 0.00 0.00 0.00 0.00 0.00 0.00 0.00 0.00 0.00 0.00 0.00 0.01 0.01 0.01 0.01 0.01 0.01 0.01 0.01 0.00 0.00 0.00 0.01 0.00 0.00 0.00 0.00 0.00 0.01 0.02 0.03 0.04 0.04 0.05 0.05
0.00 0.00 0.00 0.00 0.00 0.00 0.00 0.00 0.00 0.00 0.00 0.00 0.00 0.00 0.00 0.00 0.00 0.00 0.00 0.00 0.01 0.01 0.01 0.01 0.01 0.01 0.00 0.00 0.00 0.00 0.00 0.00 0.00 0.00 0.00 0.00 0.00 0.01 0.02 0.03 0.03 0.04 0.04
0.00 0.00 0.00 0.00 0.00 0.00 0.00 0.00 0.00 0.00 0.00 0.00 0.00 0.00 0.00 0.00 0.00 0.00 0.00 0.00 0.00 0.00 0.00 0.00 0.00 0.01 0.00 0.00 0.00 0.00 0.00 0.00 0.00 0.00 0.00 0.00 0.00 0.00 0.01 0.02 0.02 0.03 0.04
0.00 0.00 0.00 0.00 0.00 0.00 0.00 0.00 0.00 0.00 0.00 0.00 0.00 0.00 0.00 0.00 0.00 0.00 0.00 0.00 0.00 0.00 0.00 0.00 0.00 0.00 0.00 0.00 0.00 0.00 0.00 0.00 0.00 0.00 0.00 0.00 0.00 0.00 0.00 0.01 0.02 0.03 0.03
0.00 0.00 0.00 0.00 0.00 0.00 0.00 0.00 0.00 0.00 0.00 0.00 0.00 0.00 0.00 0.00 0.00 0.00 0.00 0.00 0.00 0.00 0.00 0.00 0.00 0.00 0.00 0.00 0.00 0.00 0.00 0.00 0.00 0.00 0.00 0.00 0.00 0.00 0.00 0.00 0.01 0.02 0.03
0.00 0.00 0.00 0.00 0.00 0.00 0.00 0.00 0.00 0.00 0.00 0.00 0.00 0.00 0.00 0.00 0.00 0.00 0.00 0.00 0.00 0.00 0.00 0.00 0.00 0.00 0.00 0.00 0.00 0.00 0.00 0.00 0.00 0.00 0.00 0.00 0.00 0.00 0.00 0.00 0.00 0.01 0.02
0.00 0.00 0.00 0.00 0.00 0.00 0.00 0.00 0.00 0.00 0.00 0.00 0.00 0.00 0.00 0.00 0.00 0.00 0.00 0.00 0.00 0.00 0.00 0.00 0.00 0.00 0.00 0.00 0.00 0.00 0.00 0.00 0.00 0.00 0.00 0.00 0.00 0.00 0.00 0.00 0.00 0.00 0.01
0.00 0.00 0.00 0.00 0.00 0.00 0.00 0.00 0.00 0.00 0.00 0.00 0.00 0.00 0.00 0.00 0.00 0.00 0.00 0.00 0.00 0.00 0.00 0.00 0.00 0.00 0.00 0.00 0.00 0.00 0.00 0.00 0.00 0.00 0.00 0.00 0.00 0.00 0.00 0.00 0.00 0.00 0.00
0.00 0.00 0.00 0.00 0.00 0.00 0.00 0.00 0.00 0.00 0.00 0.00 0.00 0.00 0.00 0.00 0.00 0.00 0.00 0.00 0.00 0.00 0.00 0.00 0.00 0.00 0.00 0.00 0.00 0.00 0.00 0.00 0.00 0.00 0.00 0.00 0.00 0.00 0.00 0.00 0.00 0.00 0.00
0.00 0.00 0.00 0.00 0.00 0.00 0.00 0.00 0.00 0.00 0.00 0.00 0.00 0.00 0.00 0.00 0.00 0.00 0.00 0.00 0.00 0.00 0.00 0.00 0.00 0.00 0.00 0.00 0.00 0.00 0.00 0.00 0.00 0.00 0.00 0.00 0.00 0.00 0.00 0.00 0.00 0.00 0.00
0.00 0.00 0.00 0.00 0.00 0.00 0.00 0.00 0.00 0.00 0.00 0.00 0.00 0.00 0.00 0.00 0.00 0.00 0.00 0.00 0.00 0.00 0.00 0.00 0.00 0.00 0.00 0.00 0.00 0.00 0.00 0.00 0.00 0.00 0.00 0.00 0.00 0.00 0.00 0.00 0.00 0.00 0.00
0.00 0.00 0.00 0.00 0.00 0.00 0.00 0.00 0.00 0.00 0.00 0.00 0.00 0.00 0.00 0.00 0.00 0.00 0.00 0.00 0.00 0.00 0.00 0.00 0.00 0.00 0.00 0.00 0.00 0.00 0.00 0.00 0.00 0.00 0.00 0.00 0.00 0.00 0.00 0.00 0.00 0.00 0.00
0.00 0.00 0.00 0.00 0.00 0.00 0.00 0.00 0.00 0.00 0.00 0.00 0.00 0.00 0.00 0.00 0.00 0.00 0.00 0.00 0.00 0.00 0.00 0.00 0.00 0.00 0.00 0.00 0.00 0.00 0.00 0.00 0.00 0.00 0.00 0.00 0.00 0.00 0.00 0.00 0.00 0.00 0.00
0.00 0.00 0.00 0.00 0.00 0.00 0.00 0.00 0.00 0.00 0.00 0.00 0.00 0.00 0.00 0.00 0.00 0.00 0.00 0.00 0.00 0.00 0.00 0.00 0.00 0.00 0.00 0.00 0.00 0.00 0.00 0.00 0.00 0.00 0.00 0.00 0.00 0.00 0.00 0.00 0.00 0.00 0.00
0.00 0.00 0.00 0.00 0.00 0.00 0.00 0.00 0.00 0.00 0.00 0.00 0.00 0.00 0.00 0.00 0.00 0.00 0.00 0.00 0.00 0.00 0.00 0.00 0.00 0.00 0.00 0.00 0.00 0.00 0.00 0.00 0.00 0.00 0.00 0.00 0.00 0.00 0.00 0.00 0.00 0.00 0.00
0.00 0.00 0.00 0.00 0.00 0.00 0.00 0.00 0.00 0.00 0.00 0.00 0.00 0.00 0.00 0.00 0.00 0.00 0.00 0.00 0.00 0.00 0.00 0.00 0.00 0.00 0.00 0.00 0.00 0.00 0.00 0.00 0.00 0.00 0.00 0.00 0.00 0.00 0.00 0.00 0.00 0.00 0.00
0.00 0.00 0.00 0.00 0.00 0.00 0.00 0.00 0.00 0.00 0.00 0.00 0.00 0.00 0.00 0.00 0.00 0.00 0.00 0.00 0.00 0.00 0.00 0.00 0.00 0.00 0.00 0.00 0.00 0.00 0.00 0.00 0.00 0.00 0.00 0.00 0.00 0.00 0.00 0.00 0.00 0.00 0.00
0.00 0.00 0.00 0.00 0.00 0.00 0.00 0.00 0.00 0.00 0.00 0.00 0.00 0.00 0.00 0.00 0.00 0.00 0.00 0.00 0.00 0.00 0.00 0.00 0.00 0.00 0.00 0.00 0.00 0.00 0.00 0.00 0.00 0.00 0.00 0.00 0.00 0.00 0.00 0.00 0.00 0.00 0.00
0.00 0.00 0.00 0.00 0.00 0.00 0.00 0.00 0.00 0.00 0.00 0.00 0.00 0.00 0.00 0.00 0.00 0.00 0.00 0.00 0.00 0.00 0.00 0.00 0.00 0.00 0.00 0.00 0.00 0.00 0.00 0.00 0.00 0.00 0.00 0.00 0.00 0.00 0.00 0.00 0.00 0.00 0.00
0.00 0.00 0.00 0.00 0.00 0.00 0.00 0.00 0.00 0.00 0.00 0.00 0.00 0.00 0.00 0.00 0.00 0.00 0.00 0.00 0.00 0.00 0.00 0.00 0.00 0.00 0.01 0.00 0.00 0.01 0.01 0.01 0.00 0.00 0.00 0.00 0.00 0.00 0.00 0.00 0.00 0.00 0.00
0.00 0.00 0.00 0.00 0.00 0.00 0.00 0.00 0.00 0.00 0.00 0.00 0.00 0.00 0.00 0.00 0.00 0.00 0.00 0.00 0.00 0.00 0.00 0.00 0.00 0.00 0.01 0.01 0.00 0.01 0.01 0.01 0.01 0.01 0.00 0.00 0.00 0.00 0.00 0.00 0.00 0.00 0.00
0.00 0.00 0.00 0.00 0.00 0.00 0.00 0.00 0.00 0.00 0.00 0.00 0.00 0.00 0.00 0.00 0.00 0.00 0.00 0.00 0.00 0.00 0.00 0.00 0.00 0.01 0.01 0.01 0.02 0.02 0.01 0.01 0.01 0.02 0.01 0.00 0.00 0.00 0.00 0.00 0.00 0.00 0.00
0.00 0.00 0.00 0.00 0.00 0.00 0.00 0.00 0.00 0.00 0.00 0.00 0.00 0.00 0.00 0.00 0.00 0.00 0.00 0.00 0.00 0.00 0.00 0.00 0.01 0.01 0.01 0.02 0.02 0.02 0.02 0.02 0.02 0.02 0.02 0.01 0.00 0.00 0.00 0.00 0.00 0.00 0.00
MSLP
1030.49 1030.39 1030.11 1029.75 1029.42 1029.17 1029.01 1028.91 1028.82 1028.67 1028.42 1028.06 1027.63 1027.17 1026.75 1026.39 1026.13 1025.95 1025.81 1025.65 1025.45 1025.17 1024.82 1024.41 1023.98 1023.56 1023.18 1022.84 1022.51 1022.17 1021.78 1021.31 1020.77 1020.16 1019.52 1018.88 1018.28 1017.74 1017.27 1016.85 1016.47 1016.13 1015.81
1030.70 1030.59 1030.32 1029.98 1029.67 1029.45 1029.31 1029.23 1029.15 1029.02 1028.79 1028.46 1028.07 1027.66 1027.28 1026.97 1026.74 1026.58 1026.44 1026.28 1026.06 1025.76 1025.39 1024.97 1024.53 1024.10 1023.70 1023.32 1022.95 1022.56 1022.12 1021.61 1021.04 1020.41 1019.77 1019.15 1018.56 1018.04 1017.56 1017.14 1016.74 1016.36 1015.99
1031.03 1030.89 1030.60 1030.26 1029.95 1029.73 1029.61 1029.53 1029.46 1029.35 1029.15 1028.86 1028.52 1028.16 1027.83 1027.55 1027.34 1027.17 1027.00 1026.80 1026.55 1026.21 1025.81 1025.37 1024.91 1024.48 1024.06 1023.67 1023.28 1022.86 1022.38 1021.85 1021.26 1020.64 1020.01 1019.41 1018.86 1018.35 1017.89 1017.47 1017.05 1016.64 1016.23
1031.39 1031.22 1030.90 1030.55 1030.25 1030.03 1029.90 1029.83 1029.77 1029.66 1029.49 1029.24 1028.94 1028.63 1028.33 1028.07 1027.84 1027.64 1027.43 1027.18 1026.87 1026.49 1026.05 1025.59 1025.14 1024.71 1024.30 1023.91 1023.51 1023.08 1022.60 1022.07 1021.48 1020.88 1020.27 1019.70 1019.16 1018.68 1018.23 1017.80 1017.37 1016.93 1016.49
1031.69 1031.49 1031.18 1030.83 1030.54 1030.34 1030.21 1030.14 1030.08 1029.97 1029.81 1029.58 1029.31 1029.01 1028.73 1028.47 1028.22 1027.98 1027.72 1027.40 1027.04 1026.62 1026.16 1025.70 1025.26 1024.84 1024.46 1024.08 1023.70 1023.29 1022.82 1022.29 1021.72 1021.13 1020.55 1019.99 1019.47 1019.00 1018.55 1018.10 1017.66 1017.20 1016.74
1031.85 1031.66 1031.37 1031.07 1030.82 1030.65 1030.54 1030.47 1030.39 1030.27 1030.10 1029.87 1029.59 1029.31 1029.02 1028.75 1028.48 1028.20 1027.89 1027.53 1027.12 1026.67 1026.21 1025.76 1025.34 1024.95 1024.59 1024.25 1023.89 1023.50 1023.04 1022.53 1021.98 1021.41 1020.83 1020.28 1019.76 1019.27 1018.81 1018.35 1017.88 1017.41 1016.92
1031.85 1031.69 1031.47 1031.25 1031.07 1030.95 1030.87 1030.79 1030.70 1030.56 1030.36 1030.11 1029.82 1029.53 1029.24 1028.95 1028.67 1028.36 1028.02 1027.63 1027.20 1026.75 1026.29 1025.85 1025.45 1025.09 1024.76 1024.44 1024.10 1023.72 1023.28 1022.79 1022.25 1021.68 1021.10 1020.55 1020.01 1019.50 1019.00 1018.51 1018.01 1017.52 1017.03
1031.68 1031.59 1031.47 1031.36 1031.28 1031.23 1031.19 1031.12 1031.01 1030.84 1030.60 1030.32 1030.02 1029.72 1029.42 1029.13 1028.84 1028.53 1028.18 1027.78 1027.35 1026.90 1026.45 1026.02 1025.64 1025.29 1024.98 1024.66 1024.33 1023.95 1023.52 1023.03 1022.49 1021.92 1021.34 1020.76 1020.19 1019.64 1019.10 1018.57 1018.05 1017.54 1017.04
1031.41 1031.42 1031.42 1031.43 1031.46 1031.49 1031.49 1031.43 1031.31 1031.10 1030.83 1030.53 1030.22 1029.91 1029.63 1029.35 1029.07 1028.77 1028.43 1028.03 1027.60 1027.15 1026.71 1026.29 1025.90 1025.55 1025.23 1024.91 1024.56 1024.17 1023.72 1023.23 1022.68 1022.10 1021.51 1020.90 1020.30 1019.71 1019.13 1018.55 1018.00 1017.47 1016.97
1031.11 1031.22 1031.35 1031.49 1031.62 1031.72 1031.76 1031.71 1031.57 1031.34 1031.05 1030.74 1030.43 1030.15 1029.89 1029.64 1029.39 1029.10 1028.77 1028.38 1027.95 1027.50 1027.05 1026.62 1026.21 1025.84 1025.49 1025.14 1024.76 1024.35 1023.88 1023.37 1022.81 1022.22 1021.61 1020.98 1020.35 1019.71 1019.08 1018.47 1017.88 1017.33 1016.83
1030.85 1031.07 1031.31 1031.55 1031.77 1031.93 1031.99 1031.94 1031.78 1031.54 1031.25 1030.94 1030.66 1030.41 1030.19 1029.99 1029.76 1029.50 1029.18 1028.79 1028.35 1027.89 1027.41 1026.96 1026.53 1026.12 1025.73 1025.34 1024.93 1024.48 1023.99 1023.46 1022.89 1022.28 1021.65 1020.99 1020.33 1019.65 1018.98 1018.33 1017.71 1017.14 1016.63
1030.69 1031.00 1031.32 1031.64 1031.90 1032.08 1032.14 1032.08 1031.91 1031.67 1031.39 1031.12 1030.88 1030.69 1030.52 1030.36 1030.17 1029.92 1029.60 1029.20 1028.74 1028.25 1027.75 1027.26 1026.80 1026.36 1025.94 1025.51 1025.06 1024.59 1024.07 1023.51 1022.91 1022.29 1021.63 1020.95 1020.25 1019.54 1018.83 1018.14 1017.49 1016.90 1016.37
1030.62 1030.99 1031.38 1031.73 1032.01 1032.17 1032.21 1032.12 1031.94 1031.70 1031.45 1031.23 1031.06 1030.93 1030.83 1030.71 1030.55 1030.30 1029.97 1029.55 1029.07 1028.55 1028.02 1027.50 1027.02 1026.55 1026.11 1025.65 1025.18 1024.67 1024.12 1023.54 1022.91 1022.26 1021.57 1020.86 1020.12 1019.37 1018.63 1017.90 1017.22 1016.60 1016.05
1030.60 1031.03 1031.45 1031.80 1032.06 1032.19 1032.19 1032.07 1031.87 1031.65 1031.43 1031.27 1031.17 1031.11 1031.06 1030.99 1030.84 1030.60 1030.25 1029.81 1029.30 1028.75 1028.21 1027.68 1027.19 1026.72 1026.26 1025.79 1025.30 1024.77 1024.19 1023.56 1022.90 1022.20 1021.47 1020.71 1019.94 1019.15 1018.37 1017.61 1016.90 1016.26 1015.69
1030.60 1031.07 1031.49 1031.83 1032.05 1032.13 1032.08 1031.93 1031.72 1031.51 1031.34 1031.23 1031.20 1031.20 1031.20 1031.16 1031.03 1030.79 1030.43 1029.97 1029.44 1028.89 1028.34 1027.82 1027.34 1026.88 1026.42 1025.95 1025.44 1024.88 1024.27 1023.60 1022.88 1022.13 1021.34 1020.53 1019.70 1018.87 1018.05 1017.27 1016.53 1015.87 1015.29
1030.54 1031.04 1031.47 1031.79 1031.97 1032.01 1031.91 1031.73 1031.52 1031.32 1031.19 1031.14 1031.15 1031.21 1031.25 1031.23 1031.11 1030.87 1030.51 1030.05 1029.53 1028.99 1028.46 1027.96 1027.50 1027.06 1026.61 1026.14 1025.61 1025.02 1024.36 1023.63 1022.86 1022.03 1021.18 1020.31 1019.43 1018.55 1017.70 1016.89 1016.14 1015.46 1014.87
1030.38 1030.92 1031.37 1031.68 1031.84 1031.84 1031.72 1031.53 1031.31 1031.13 1031.03 1031.01 1031.07 1031.15 1031.22 1031.22 1031.11 1030.88 1030.53 1030.08 1029.59 1029.08 1028.58 1028.12 1027.68 1027.26 1026.82 1026.33 1025.78 1025.14 1024.43 1023.65 1022.81 1021.92 1021.01 1020.08 1019.15 1018.23 1017.35 1016.51 1015.75 1015.07 1014.48
1030.10 1030.69 1031.17 1031.50 1031.66 1031.66 1031.54 1031.35 1031.15 1030.99 1030.91 1030.91 1030.97 1031.07 1031.14 1031.14 1031.04 1030.83 1030.51 1030.10 1029.65 1029.19 1028.73 1028.30 1027.88 1027.46 1027.01 1026.49 1025.90 1025.22 1024.46 1023.62 1022.73 1021.79 1020.83 1019.86 1018.90 1017.95 1017.05 1016.20 1015.43 1014.75 1014.15
1029.71 1030.36 1030.89 1031.26 1031.46 1031.49 1031.41 1031.24 1031.06 1030.92 1030.84 1030.84 1030.89 1030.97 1031.03 1031.03 1030.94 1030.75 1030.47 1030.11 1029.72 1029.30 1028.89 1028.48 1028.06 1027.62 1027.13 1026.57 1025.93 1025.20 1024.40 1023.53 1022.61 1021.65 1020.67 1019.69 1018.72 1017.76 1016.85 1015.99 1015.21 1014.52 1013.92
1029.24 1029.96 1030.56 1030.99 1031.25 1031.35 1031.31 1031.19 1031.05 1030.92 1030.84 1030.81 1030.83 1030.87 1030.90 1030.88 1030.79 1030.63 1030.39 1030.10 1029.76 1029.39 1029.01 1028.60 1028.17 1027.68 1027.14 1026.52 1025.82 1025.05 1024.22 1023.35 1022.43 1021.50 1020.55 1019.59 1018.63 1017.69 1016.78 1015.91 1015.11 1014.39 1013.77
1028.75 1029.53 1030.20 1030.70 1031.03 1031.20 1031.24 1031.18 1031.07 1030.96 1030.87 1030.81 1030.78 1030.77 1030.75 1030.70 1030.61 1030.47 1030.27 1030.03 1029.74 1029.41 1029.04 1028.62 1028.14 1027.59 1026.98 1026.29 1025.54 1024.74 1023.91 1023.07 1022.21 1021.34 1020.46 1019.56 1018.65 1017.73 1016.82 1015.94 1015.11 1014.36 1013.70
1028.25 1029.10 1029.82 1030.39 1030.80 1031.05 1031.16 1031.16 1031.10 1031.01 1030.90 1030.81 1030.72 1030.65 1030.57 1030.48 1030.38 1030.25 1030.08 1029.88 1029.63 1029.32 1028.94 1028.49 1027.95 1027.33 1026.63 1025.88 1025.08 1024.28 1023.48 1022.69 1021.92 1021.16 1020.38 1019.57 1018.73 1017.85 1016.95 1016.04 1015.17 1014.36 1013.64
1027.80 1028.68 1029.44 1030.06 1030.53 1030.84 1031.02 1031.09 1031.07 1031.00 1030.89 1030.76 1030.62 1030.48 1030.35 1030.22 1030.09 1029.96 1029.81 1029.63 1029.40 1029.10 1028.70 1028.20 1027.60 1026.89 1026.12 1025.30 1024.48 1023.68 1022.93 1022.23 1021.57 1020.93 1020.27 1019.57 1018.80 1017.97 1017.07 1016.14 1015.21 1014.33 1013.53
1027.39 1028.29 1029.06 1029.70 1030.19 1030.55 1030.78 1030.91 1030.94 1030.90 1030.79 1030.64 1030.47 1030.28 1030.10 1029.93 1029.77 1029.62 1029.47 1029.30 1029.07 1028.75 1028.33 1027.78 1027.11 1026.33 1025.48 1024.62 1023.78 1022.99 1022.30 1021.69 1021.14 1020.63 1020.09 1019.49 1018.80 1018.00 1017.10 1016.13 1015.14 1014.19 1013.30
1027.05 1027.93 1028.69 1029.31 1029.80 1030.17 1030.44 1030.61 1030.69 1030.68 1030.60 1030.46 1030.27 1030.05 1029.83 1029.62 1029.43 1029.26 1029.10 1028.91 1028.67 1028.33 1027.87 1027.27 1026.54 1025.71 1024.81 1023.90 1023.05 1022.28 1021.63 1021.10 1020.64 1020.23 1019.79 1019.28 1018.64 1017.87 1016.97 1015.97 1014.92 1013.90 1012.94
1026.76 1027.60 1028.31 1028.88 1029.35 1029.71 1029.99 1030.20 1030.32 1030.36 1030.32 1030.20 1030.02 1029.80 1029.55 1029.31 1029.09 1028.90 1028.71 1028.50 1028.23 1027.87 1027.38 1026.74 1025.97 1025.09 1024.16 1023.23 1022.36 1021.60 1020.98 1020.49 1020.09 1019.74 1019.36 1018.90 1018.30 1017.55 1016.65 1015.63 1014.55 1013.47 1012.46
Thickness
5621 5621 5621 5623 5625 5626 5628 5629 5629 5630 5631 5631 5632 5633 5634 5634 5635 5636 5637 5638 5640 5641 5644 5646 5648 5651 5654 5657 5661 5664 5669 5673 5678 5682 5687 5693 5700 5707 5712 5716 5719 5723 5726
5619 5618 5618 5619 5621 5622 5622 5623 5623 5624 5624 5624 5624 5625 5625 5626 5626 5627 5628 5629 5630 5632 5633 5635 5638 5640 5643 5647 5650 5654 5658 5663 5667 5671 5676 5685 5691 5697 5703 5708 5712 5716 5720
5617 5615 5614 5615 5616 5617 5617 5617 5617 5617 5617 5617 5617 5617 5617 5617 5617 5617 5618 5619 5620 5621 5622 5624 5626 5629 5631 5635 5638 5642 5647 5652 5656 5659 5666 5673 5679 5686 5692 5698 5703 5708 5713
5614 5610 5609 5610 5610 5611 5611 5611 5610 5610 5609 5609 5608 5608 5607 5607 5607 5607 5607 5607 5608 5609 5610 5612 5614 5616 5619 5622 5625 5630 5635 5640 5644 5648 5653 5660 5666 5673 5681 5687 5693 5699 5705
5610 5606 5604 5605 5605 5604 5604 5604 5603 5602 5601 5600 5599 5598 5598 5597 5597 5596 5595 5595 5595 5596 5597 5598 5600 5602 5605 5608 5611 5616 5621 5626 5630 5634 5640 5647 5653 5660 5668 5674 5681 5688 5695
5606 5602 5600 5599 5599 5598 5597 5596 5595 5594 5592 5591 5590 5589 5587 5586 5585 5584 5582 5581 5581 5581 5582 5583 5585 5587 5590 5593 5596 5601 5606 5611 5616 5620 5626 5633 5640 5647 5655 5662 5668 5676 5684
5602 5599 5596 5594 5593 5591 5590 5588 5586 5585 5583 5581 5580 5578 5576 5574 5573 5571 5568 5566 5565 5565 5565 5566 5567 5569 5571 5575 5579 5584 5589 5594 5600 5606 5612 5619 5627 5634 5642 5649 5655 5663 5671
5598 5595 5592 5590 5587 5585 5583 5580 5578 5575 5573 5571 5568 5565 5562 5560 5558 5555 5552 5549 5547 5546 5545 5545 5546 5548 5551 5554 5558 5563 5569 5574 5582 5589 5596 5604 5611 5619 5628 5635 5641 5649 5658
5594 5590 5587 5584 5581 5578 5576 5572 5569 5566 5563 5560 5556 5552 5548 5545 5541 5537 5533 5529 5527 5524 5522 5521 5521 5523 5525 5529 5534 5539 5545 5551 5560 5568 5576 5584 5593 5602 5611 5619 5626 5634 5644
5591 5586 5582 5578 5574 5571 5568 5565 5561 5557 5552 5548 5544 5539 5534 5529 5524 5519 5513 5509 5505 5501 5497 5494 5493 5493 5496 5499 5503 5509 5516 5525 5533 5543 5553 5563 5573 5583 5593 5602 5611 5620 5629
5587 5582 5577 5572 5567 5563 5560 5556 5551 5546 5541 5536 5530 5525 5519 5513 5508 5502 5494 5488 5482 5476 5470 5465 5461 5460 5461 5463 5467 5474 5483 5492 5503 5515 5527 5539 5551 5562 5573 5584 5594 5604 5615
5583 5576 5570 5565 5560 5556 5551 5546 5541 5536 5530 5524 5518 5512 5505 5498 5490 5483 5473 5464 5456 5447 5440 5433 5428 5425 5424 5426 5430 5437 5445 5456 5469 5483 5497 5511 5525 5538 5551 5563 5575 5587 5599
5578 5570 5564 5559 5553 5548 5543 5537 5532 5526 5520 5513 5506 5498 5490 5481 5471 5461 5450 5439 5428 5419 5410 5402 5396 5393 5392 5393 5397 5402 5410 5420 5432 5447 5463 5479 5496 5512 5527 5542 5555 5568 5581
5573 5565 5558 5552 5546 5540 5534 5528 5523 5517 5510 5502 5494 5484 5474 5463 5451 5438 5424 5412 5400 5390 5382 5375 5369 5367 5366 5365 5367 5372 5379 5386 5397 5411 5428 5445 5464 5483 5500 5517 5533 5548 5563
5568 5560 5552 5546 5539 5532 5526 5520 5514 5506 5498 5489 5480 5468 5456 5443 5428 5413 5398 5386 5374 5364 5357 5351 5347 5345 5344 5343 5344 5347 5352 5359 5367 5378 5393 5410 5430 5451 5471 5491 5509 5527 5543
5563 5555 5546 5539 5532 5525 5518 5511 5504 5495 5486 5476 5464 5451 5436 5421 5405 5389 5375 5362 5351 5342 5335 5330 5326 5324 5323 5322 5323 5324 5328 5334 5342 5351 5363 5378 5396 5417 5440 5462 5483 5502 5520
5558 5549 5540 5533 5525 5518 5510 5501 5493 5484 5473 5462 5448 5433 5417 5400 5383 5367 5353 5341 5332 5323 5316 5311 5307 5304 5302 5301 5301 5303 5306 5312 5318 5327 5337 5350 5367 5386 5408 5431 5453 5475 5495
5554 5544 5535 5526 5518 5510 5501 5492 5482 5472 5460 5447 5432 5415 5398 5380 5363 5348 5334 5324 5315 5306 5299 5293 5289 5285 5281 5279 5279 5281 5284 5289 5296 5304 5313 5325 5340 5358 5377 5398 5421 5445 5468
5549 5539 5529 5520 5511 5501 5492 5482 5471 5460 5447 5432 5416 5399 5381 5363 5346 5332 5319 5309 5300 5291 5283 5276 5270 5263 5260 5257 5257 5260 5261 5265 5272 5280 5290 5302 5316 5332 5349 5368 5390 5414 5438
5545 5534 5524 5514 5504 5493 5483 5471 5460 5447 5433 5418 5402 5384 5366 5349 5333 5319 5307 5296 5286 5277 5268 5260 5252 5246 5239 5235 5235 5236 5237 5240 5247 5255 5265 5278 5292 5306 5321 5339 5360 5384 5408
5541 5529 5518 5507 5496 5485 5473 5460 5448 5434 5421 5406 5389 5371 5353 5336 5321 5307 5295 5284 5273 5263 5254 5244 5236 5230 5223 5216 5212 5212 5215 5216 5221 5228 5237 5251 5266 5279 5294 5312 5333 5356 5379
5538 5525 5512 5500 5488 5477 5464 5451 5438 5424 5410 5395 5378 5359 5341 5325 5311 5297 5285 5273 5262 5252 5242 5231 5222 5213 5207 5198 5188 5186 5189 5195 5197 5202 5210 5224 5238 5253 5271 5289 5309 5331 5353
5535 5521 5508 5494 5481 5469 5456 5442 5428 5414 5399 5383 5366 5348 5331 5315 5301 5288 5275 5264 5252 5240 5230 5220 5209 5199 5191 5186 5174 5163 5159 5165 5172 5181 5187 5200 5215 5231 5249 5268 5287 5307 5329
5532 5516 5502 5487 5474 5461 5448 5433 5418 5403 5387 5372 5355 5338 5322 5307 5293 5280 5268 5256 5244 5232 5221 5210 5200 5188 5179 5173 5167 5158 5149 5146 5147 5159 5170 5180 5193 5211 5229 5247 5267 5287 5308
5528 5511 5496 5481 5468 5454 5440 5425 5410 5394 5378 5362 5346 5330 5314 5300 5286 5273 5261 5248 5236 5225 5213 5202 5192 5182 5172 5163 5157 5151 5145 5141 5138 5138 5151 5164 5177 5194 5212 5230 5250 5269 5289
5524 5507 5490 5476 5462 5448 5433 5418 5403 5387 5370 5354 5337 5321 5307 5293 5280 5267 5255 5242 5230 5219 5207 5197 5187 5178 5168 5160 5152 5146 5140 5135 5133 5132 5137 5149 5164 5182 5198 5217 5236 5255 5273